Location: Assche-ter-Heiden
(50.9174°N, 4.1574°E)
Time: 21:14:37
(UTC+00:00)

Okean-O - Pass Details

Date: 20 January 2020
Orbit: 639 x 640 km, 98.2° (Epoch: 16 February)

Event Time Altitude Azimuth Distance (km) Brightness Sun altitude
Rises 06:03:34 0° 21° (NNE) 2,959 6.1 -14.1°
Reaches altitude 10° 06:05:57 10° 30° (NNE) 2,044 5.4 -13.8°
Maximum altitude 06:10:03 35° 97° (E) 1,031 4.4 -13.1°
Drops below altitude 10° 06:14:07 10° 164° (SSE) 2,028 5.7 -12.5°
Sets 06:16:27 0° 173° (S) 2,932 6.4 -12.2°
